Location: Błonie
(52.1971°N, 20.6200°E)
Time: 12:46:59
(UTC+01:00)

ISS - Pass Details

Date: 24 January 2019
Orbit: 403 x 411 km, 51.6° (Epoch: 21 February)

Event Time Altitude Azimuth Distance (km) Brightness Sun altitude
Rises 19:19:59 0° 242° (WSW) 2,334 0.8 -28.8°
Reaches altitude 10° 19:22:06 10° 237° (WSW) 1,476 -0.4 -29.1°
Enters shadow 19:22:17 11° 237° (WSW) 1,401 -0.5 -29.1°
